DateTimeUTC,F1_A11,F1_S11,BsB_S11,BsG_S11,BsR_S11,BbsB_S11,BbsG_S11,BbsR_S11,BaB_A11,BaG_A11,BaR_A11,Tu_S11,T_S11,Uu_S11,U_S11,P_S11,T1_A11
2021-03-20T10:00:00Z,00000200,21000000,,,,,,,0000.31,-000.09,0000.50,16.7,24.0,,00.0,0646.3,31.0
2021-03-20T10:01:00Z,00000200,21000000,,,,,,,-000.09,0000.15,-000.35,16.7,24.0,,00.0,0646.3,31.0
2021-03-20T10:02:00Z,00000200,21000000,,,,,,,0000.41,-000.02,0000.32,16.7,24.0,,00.0,0646.2,31.0
2021-03-20T10:03:00Z,00000200,61000000,,,,,,,0000.44,0000.56,0000.31,16.7,24.1,,00.0,0646.2,31.0
2021-03-20T10:04:00Z,00000200,41000000,0001.95,0001.54,0000.68,-000.16,0000.41,0000.01,0000.50,0000.88,0000.56,17.1,24.0,,00.0,0647.1,31.0
2021-03-20T10:05:00Z,00000200,01000000,0002.42,0001.46,0000.58,0000.38,-000.08,0000.14,0000.56,0000.14,0000.26,17.2,24.0,,00.0,0647.1,31.0
2021-03-20T10:06:00Z,00000200,01000000,0001.60,0001.24,0000.82,0000.09,0000.33,0000.09,0000.65,0000.99,0000.47,17.3,24.0,,00.0,0647.2,31.0
2021-03-20T10:07:00Z,00000200,01000000,0002.01,0001.40,0000.72,0000.19,0000.53,0000.02,0000.39,0000.07,0000.24,17.2,24.0,,00.0,0647.1,31.0
2021-03-20T10:08:00Z,00000200,01000000,0002.12,0001.28,0000.87,0000.14,0000.37,0000.10,0000.65,0000.79,0000.31,17.2,24.0,,00.0,0647.1,31.0
2021-03-20T10:09:00Z,00000200,01000000,0001.93,0001.25,0000.92,0000.18,-000.11,0000.32,0000.69,0000.35,0000.39,17.1,23.9,,00.0,0647.1,30.9
2021-03-20T10:10:00Z,00000200,01000000,0001.92,0001.21,0000.74,0000.56,0000.20,-000.11,0000.60,0000.52,0000.31,17.0,23.9,,00.0,0647.1,30.9
2021-03-20T10:11:00Z,00000200,01000000,0001.79,0001.50,0000.93,0000.44,0000.49,-000.03,0000.71,0000.71,0000.48,16.9,23.9,,00.0,0647.1,30.9
2021-03-20T10:12:00Z,00000200,01000000,0002.00,0001.51,0000.83,-000.03,-000.01,0000.08,0000.50,-000.03,0000.38,16.9,23.8,,00.0,0647.0,30.9
2021-03-20T10:13:00Z,00000200,01000000,0001.76,0001.31,0000.87,0000.32,0000.09,0000.20,0000.40,0000.95,0000.44,16.8,23.8,,00.0,0647.0,30.9
2021-03-20T10:14:00Z,00000200,01000000,0002.26,0001.32,0000.99,0000.39,0000.24,0000.18,0000.83,0000.43,0000.56,16.7,23.8,,00.0,0647.0,30.9
2021-03-20T10:15:00Z,00000200,01000000,0002.01,0001.28,0000.68,0000.58,0000.11,0000.21,0000.45,0000.42,0000.04,16.7,23.7,,00.0,0646.9,30.9
2021-03-20T10:16:00Z,00000200,01000000,0002.52,0001.23,0000.50,0000.23,0000.06,0000.13,0000.92,0000.46,0000.63,16.6,23.7,,00.0,0646.9,30.9
2021-03-20T10:17:00Z,00000200,01000000,0002.12,0001.45,0000.94,0000.47,0000.33,0000.06,0000.48,0000.93,0000.70,16.6,23.7,,00.0,0646.9,30.9
2021-03-20T10:18:00Z,00000200,01000000,0002.96,0001.38,0000.80,-000.06,0000.14,-000.17,0000.40,0000.31,0000.22,16.5,23.6,,00.0,0646.9,30.9
2021-03-20T10:19:00Z,00000200,01000000,0002.14,0001.35,0001.06,0000.11,0000.39,0000.22,0001.36,0001.18,0000.76,16.5,23.6,,00.0,0646.9,30.9
2021-03-20T10:20:00Z,00000200,01000000,0002.16,0001.69,0000.81,0000.41,0000.31,-000.21,0000.53,0000.67,0000.69,16.6,23.6,,00.0,0646.8,30.9
2021-03-20T10:21:00Z,00000200,01000000,0002.00,0001.70,0000.98,0000.79,0000.24,-000.03,0001.03,0000.81,0000.60,16.6,23.6,,00.0,0646.8,30.9
2021-03-20T10:22:00Z,00000200,01000000,0002.44,0001.40,0000.69,0000.33,0000.17,0000.11,0000.54,0000.69,0000.24,16.7,23.6,,00.0,0646.9,30.9
2021-03-20T10:23:00Z,00000200,01000000,0002.23,0001.39,0000.63,0000.26,0000.24,-000.03,0000.64,0000.57,0000.49,16.8,23.7,,00.0,0646.9,30.9
2021-03-20T10:24:00Z,00000200,01000000,0002.46,0001.65,0001.06,-000.21,0000.24,0000.01,0000.82,0000.23,0000.35,16.8,23.7,,00.0,0646.8,30.9
2021-03-20T10:25:00Z,00000200,01000000,0002.23,0001.33,0000.61,0000.39,0000.09,-000.05,0000.69,0000.56,0000.60,16.9,23.8,,00.0,0646.8,30.9
2021-03-20T10:26:00Z,00000200,01000000,0002.45,0001.33,0000.80,0000.41,0000.13,0000.10,0000.59,0000.95,0000.30,16.9,23.8,,00.0,0646.9,31.0
2021-03-20T10:27:00Z,00000200,01000000,0002.16,0001.60,0000.63,0000.03,0000.38,0000.17,0000.55,0000.53,0000.66,17.0,23.8,,00.0,0646.8,31.0
2021-03-20T10:28:00Z,00000200,01000000,0002.40,0001.70,0000.82,0000.18,0000.44,0000.34,0000.88,0000.55,0000.38,17.1,23.9,,00.0,0646.8,31.0
2021-03-20T10:29:00Z,00000200,01000000,0002.07,0001.49,0000.85,0000.63,0000.24,0000.20,0000.57,0000.79,0000.65,17.2,23.9,,00.0,0646.8,31.0
2021-03-20T10:30:00Z,00000200,01000000,0002.31,0001.52,0000.88,0000.15,0000.27,0000.17,0000.70,0000.90,0000.46,17.2,23.9,,00.0,0646.8,31.0
2021-03-20T10:31:00Z,00000200,01000000,0002.31,0001.47,0000.94,0000.85,0000.37,0000.10,0000.80,0000.49,0000.21,17.3,24.0,,00.0,0646.8,31.0
2021-03-20T10:32:00Z,00000200,01000000,0002.66,0001.47,0000.98,0000.16,0000.31,0000.23,0000.72,0000.67,0000.84,17.3,24.0,,00.0,0646.8,31.0
2021-03-20T10:33:00Z,00000200,01000000,0002.28,0001.30,0000.80,0000.14,0000.29,0000.09,0000.73,0000.60,0000.52,17.4,24.0,,00.0,0646.8,31.0
2021-03-20T10:34:00Z,00000200,01000000,0002.07,0001.32,0000.79,0000.04,0000.10,-000.04,0000.70,0000.45,0000.27,17.5,24.1,,00.0,0646.7,31.0
2021-03-20T10:35:00Z,00000200,01000000,0001.94,0001.23,0001.36,0000.49,0000.14,0000.09,0000.38,0000.42,0000.15,17.5,24.1,,00.0,0646.7,31.0
2021-03-20T10:36:00Z,00000200,01000000,0002.61,0001.28,0000.92,0000.07,-000.03,0000.16,0000.59,0000.64,0000.59,17.4,24.1,,00.0,0646.7,31.0
2021-03-20T10:37:00Z,00000200,01000000,0002.45,0001.31,0001.02,0000.56,0000.33,0000.19,0000.55,0000.60,0000.55,17.4,24.1,,00.0,0646.7,31.0
2021-03-20T10:38:00Z,00000200,01000000,0002.54,0001.59,0001.00,0000.40,0000.26,0000.23,0000.78,0000.65,0000.28,17.3,24.1,,00.0,0646.7,31.0
2021-03-20T10:39:00Z,00000200,01000000,0002.39,0001.39,0001.08,0000.01,0000.27,0000.14,0000.80,0000.35,0000.23,17.3,24.1,,00.0,0646.6,31.0
2021-03-20T10:40:00Z,00000200,01000000,0002.06,0001.75,0000.81,0000.17,0000.35,0000.15,0000.41,0000.55,0000.28,17.2,24.0,,00.0,0646.6,30.9
2021-03-20T10:41:00Z,00000200,01000000,0002.00,0001.46,0000.80,0000.37,0000.21,0000.19,0000.60,0000.49,0000.58,17.1,24.0,,00.0,0646.6,30.9
2021-03-20T10:42:00Z,00000200,01000000,0002.31,0001.34,0000.69,0000.61,0000.27,0000.27,0000.48,0000.71,0000.48,17.1,24.0,,00.0,0646.6,30.9
2021-03-20T10:43:00Z,00000200,01000000,0002.57,0001.32,0000.78,0000.71,0000.33,0000.40,0001.04,0000.69,0000.65,17.0,23.9,,00.0,0646.6,30.9
2021-03-20T10:44:00Z,00000200,01000000,0002.08,0001.36,0000.77,0000.45,0000.51,0000.09,0000.74,0000.65,0000.19,16.9,23.9,,00.0,0646.6,30.9
2021-03-20T10:45:00Z,00000200,01000000,0002.28,0001.41,0001.11,0000.10,0000.30,0000.29,0000.90,0000.60,0000.47,16.9,23.9,,00.0,0646.5,30.9
2021-03-20T10:46:00Z,00000200,01000000,0001.80,0001.61,0001.08,0000.78,0000.30,-000.22,0000.31,0000.46,0000.94,16.8,23.8,,00.0,0646.5,30.9
2021-03-20T10:47:00Z,00000200,01000000,0002.67,0001.25,0000.82,0000.74,0000.05,-000.03,0001.19,0000.83,0000.24,16.8,23.8,,00.0,0646.5,30.9
2021-03-20T10:48:00Z,00000200,01000000,0001.83,0001.43,0000.86,0000.52,0000.21,0000.36,0000.51,0000.38,0000.64,16.7,23.8,,00.0,0646.5,30.9
2021-03-20T10:49:00Z,00000200,01000000,0002.05,0001.52,0000.88,0000.10,0000.29,0000.24,0000.58,0000.92,0000.44,16.7,23.8,,00.0,0646.4,30.9
2021-03-20T10:50:00Z,00000200,01000000,0002.37,0001.66,0000.78,0000.66,0000.17,0000.30,0001.04,0000.70,0000.15,16.6,23.7,,00.0,0646.4,30.9
2021-03-20T10:51:00Z,00000200,01000000,0002.16,0001.59,0000.95,0000.37,0000.30,0000.57,0000.15,-000.07,0000.43,16.6,23.7,,00.0,0646.4,30.9
2021-03-20T10:52:00Z,00000200,01000000,0002.05,0001.47,0000.85,0000.80,0000.41,0000.14,0000.46,0000.49,0000.22,16.5,23.7,,00.0,0646.4,30.9
2021-03-20T10:53:00Z,00000200,01000000,0002.44,0001.46,0001.11,0000.22,0000.08,0000.19,0000.45,0000.65,0000.36,16.5,23.6,,00.0,0646.4,30.9
2021-03-20T10:54:00Z,00000200,01000000,0002.15,0001.42,0000.90,0000.14,0000.14,0000.15,0000.77,0000.54,0000.50,16.5,23.6,,00.0,0646.4,30.9
2021-03-20T10:55:00Z,00000200,01000000,0002.36,0001.50,0000.94,0000.64,0000.11,0000.13,0000.78,0000.73,0000.39,16.4,23.6,,00.0,0646.4,30.9
2021-03-20T10:56:00Z,00000200,01000000,0002.52,0001.53,0000.81,0000.57,0000.09,-000.10,0000.36,0000.50,0000.51,16.4,23.6,,00.0,0646.4,30.9
2021-03-20T10:57:00Z,00000200,41000000,,,,,,,-000.15,-000.30,-000.05,16.4,23.6,,00.0,0646.5,30.8
2021-03-20T10:58:00Z,00000200,61000000,,,,,,,0000.13,0000.14,-000.05,16.0,23.7,,00.0,0645.4,30.8
2021-03-20T10:59:00Z,00000200,21000000,,,,,,,-000.10,-000.12,0000.12,16.0,23.8,,00.0,0645.4,30.8
